CZ-4C R/B, 49496

Orbit data source: Space-Track

CZ-4C R/B, 49496 is space debris in SSO originally from a launch on Mon, 22 Nov 2021 UTC launched from the Jiuquan Satellite Launch Center, China (JSC). Debris objects in space refer to the collection of defunct objects orbiting the Earth. Examples of debris include non-operational satellites, rocket bodies, and fragments generated from explosions, collisions, or faulty payload assembly.

Loading next visibility...
Identifier
49496, 2021-109B
Orbit
SSO
Country
Flag of CNCN / PRC
Related business
Manufacturer
SAST
Mission
Spacecraft
Bus & Motor
CZ-4 STAGE 3, Unknown motor
Mass
~1,000 kg wet, ~1,000 kg dry
Launch date (UTC)
2021-11-22 (5 years ago)
Launch vehicle
Unknown
Launch site
Jiuquan Satellite Launch Center, China (JSC)
Object type
Payload
Rocket body
Debris
Shape & HBR
Cyl, 2.5 m
Radar Cross Section
14.536 m², Large (>1 m²)

Expand to show TLE details & history
Last TLE update: 2 days ago

TLE from 2 days ago
0 CZ-4C R/B
1 49496U 21109B   26171.46336344  .00000613  00000-0  88001-4 0  9996
2 49496  98.2077 244.3570 0116578 140.7580 220.2153 14.75786991246021
Epoch: 2026-06-20T11:07Z
TLE epoch observation values (Epoch: 2026-06-20T11:07:14.601Z)
Latitude
0.00003°
Longitude
168.86853°
Altitude
708.568 km
Speed
7.468 km/s
True Right ascension
16h 17m 25s
True Declination
0° 00' 00"
Sunlit
Object was in full shadow at epoch
Visualization orbit readout
Latitude
Unknown
Longitude
Unknown
Altitude
Unknown
Speed
Unknown
Apparent Right ascension
Unknown
Apparent Declination
Unknown
Sunlit
N/A
Visualization observer readout
Local Sidereal Time
21:29:34
Azimuth
Unknown
Elevation
Unknown
Doppler factor
Unknown
Orbital elements
Apogee altitude
721.527 km
Perigee altitude
557.901 km
Semi-major axis
7,017.851 km
Eccentricity
0.01166
Inclination
98.2077°
RAAN
244.357°
Arg. of periapsis
140.758°
True anomaly
219.3623°
Mean anomaly
220.2153°
Eccentric anomaly
219.78785°
Mean motion
3.69179 °/min
Orbital period
97.51 mins
BSTAR
0.000088001
Loading maneuver chart data...
Computing Atmospheric mass density...
Loading historical data...
Loading historical data...
Loading historical data...
Loading historical data...
Loading historical data...
Loading historical data...
Loading historical data...
Other satellites on launch #109 in the year 2021 (2021-11-22 UTC)

Documentation

Showing up to 5 results
|